Regional Weather Roundup
Issued by NWS

Home | Current Version | Previous Version | Graphics & Text | Print | Product List | Glossary On
Versions: 1 2 3 4 5 6 7 8 9 10 11 12 13 14 15 16 17 18 19 20 21 22 23 24 25 26 27 28 29 30 31 32 33 34 35 36 37 38 39 40 41 42 43 44 45 46 47 48 49 50
000
ASUS45 KPSR 301900
RWRAZ

PRELIMINARY ARIZONA REGIONAL HOURLY WEATHER ROUNDUP
NATIONAL WEATHER SERVICE PHOENIX AZ
1200 PM MST SAT AUG 30 2014

NOTE: FAIR INDICATES FEW OR NO CLOUDS BELOW 12,000 FEET WITH NO
SIGNIFICANT WEATHER AND/OR OBSTRUCTIONS TO VISIBILITY.

AZZ001>003-036-302000-
NORTHWEST ARIZONA

CITY           SKY/WX    TMP DP  RH WIND       PRES   REMARKS
KINGMAN        SUNNY     97  33  10 SW17G26   29.97S
$$

AZZ004>008-015-016-018-302000-
NORTH CENTRAL ARIZONA

CITY           SKY/WX    TMP DP  RH WIND       PRES   REMARKS
GRAND CANYON   SUNNY     81  34  18 SW8G17    30.24F
WILLIAMS       SUNNY     77  39  25 S12G20    30.31S
PRESCOTT       SUNNY     86  39  19 S9        30.12F
FLAGSTAFF      SUNNY     78  37  22 SW13G21   30.27S
PAYSON         SUNNY     86  41  20 VRB6G13   30.16S
PAGE           PTSUNNY   88  37  16 VRB3      30.03F
$$

AZZ009>014-017-302000-
NORTHEAST ARIZONA

CITY           SKY/WX    TMP DP  RH WIND       PRES   REMARKS
WINSLOW        NOT AVBL
SAINT JOHNS    SUNNY     86  38  18 W8G17     30.14F
WINDOW ROCK    SUNNY     83  27  13 MISG      30.21
$$

AZZ023-302000-
GREATER PHOENIX AREA

CITY           SKY/WX    TMP DP  RH WIND       PRES   REMARKS
PHOENIX        MOSUNNY  104  44  13 VRB3      29.79F
GLENDALE       SUNNY    100  45  15 SE5       29.82F
DEER VALLEY    SUNNY    101  39  12 S9        29.82F
SCOTTSDALE     SUNNY    101  42  13 VRB7      29.84F
MESA-FALCON    SUNNY    102  39  11 S7        29.82F
CHANDLER       SUNNY    102  46  15 S8        29.82F
$$

AZZ027-028-302000-
SOUTHWEST MARICOPA COUNTY AND PINAL COUNTY

CITY           SKY/WX    TMP DP  RH WIND       PRES   REMARKS
CASA GRANDE    SUNNY    100  46  16 CALM      29.84F
$$

AZZ503-504-507>509-302000-
SOUTHEAST ARIZONA

CITY           SKY/WX    TMP DP  RH WIND       PRES   REMARKS
TUCSON         SUNNY    101  38  11 VRB3      29.94F
DAVIS-MONTHAN  SUNNY     98  41  14 S8        29.92F
RYAN FIELD       N/A     93  50  22 E6        29.92F
NOGALES        SUNNY     91  45  20 W5        30.04F
SIERRA VISTA   SUNNY     92  46  20 SE9G17    30.10F
SAFFORD        SUNNY     95  43  16 CALM      29.96F
$$

AZZ020-021-025-026-031-302000-
SOUTHWEST ARIZONA

CITY           SKY/WX    TMP DP  RH WIND       PRES   REMARKS
YUMA           SUNNY    106  48  14 SW9       29.72F HX 102
$$

CAZ031-033-041-043-047-048-061-302000-
SOUTHERN CALIFORNIA

CITY           SKY/WX    TMP DP  RH WIND       PRES   REMARKS
DOWNTOWN L.A.  SUNNY     84  61  45 CALM      29.82F
L.A. AIRPORT   MOSUNNY   76  64  66 W8        29.84F
SAN DIEGO      MOSUNNY   75  63  66 VRB7      29.84F
BURBANK        SUNNY     85  57  38 E6        29.84F
ONTARIO        MOSUNNY   90  48  23 VRB3      29.84F
RIVERSIDE      SUNNY     91  51  25 VRB3      29.83F
PALM SPRINGS   SUNNY    107  30   7 S5        29.74F
EL CENTRO NAS  SUNNY    105  47  14 CALM      29.71F HX 101
IMPERIAL       SUNNY    104  43  12 VRB6      29.70F
BLYTHE         SUNNY    104  41  11 S6        29.74F
$$

NVZ020-UTZ003-302000-
SOUTHERN NEVADA-UTAH

CITY           SKY/WX    TMP DP  RH WIND       PRES   REMARKS
LAS VEGAS      NOT AVBL
SALT LAKE CITY LGT RAIN  78  37  22 W16G25    29.99R
$$

NMZ009-TXZ055-302000-
NEW MEXICO-WEST TEXAS

CITY           SKY/WX    TMP DP  RH WIND       PRES   REMARKS
ALBUQUERQUE    MOSUNNY   83  43  24 SW7       30.15F
EL PASO        MOSUNNY   91  47  21 S6        30.05F
$$


........................KEY........................
SKY/WX - SKY CONDITION/WEATHER
TMP    - TEMPERATURE IN FAHRENHEIT
DP     - DEW POINT IN FAHRENHEIT
RH     - RELATIVE HUMIDITY IN PERCENT
WIND   - DIRECTION AND SPEED IN MILES PER HOUR (MPH)
VRB    - VARIABLE WIND DIRECTION
PRES   - MEAN SEA LEVEL PRESSURE IN INCHES OF MERCURY
         F - FALLING PRESSURE   R - RISING PRESSURE
         S - STEADY PRESSURE
VSB    - VISIBILITY IN MILES
HX     - HEAT INDEX IN FAHRENHEIT
WCI    - WIND CHILL INDEX IN FAHRENHEIT
TC     - TEMPERATURE IN CELSIUS WHICH IS ALSO KNOWN AS
         TEMPERATURE IN CENTIGRADE
AFB    - AIR FORCE BASE
         LUKE AFB IS LUKE AIR FORCE BASE
         DAVIS-MONTHAN IS DAVIS-MONTHAN AIR FORCE BASE
NAS    - NAVAL AIR STATION
         EL CENTRO NAS IS EL CENTRO NAVAL AIR STATION
N/A    - NOT AVAILABLE


USA.gov is the U.S. government's official web portal to all federal, state and local government web resources and services.